When you browse on this site, cookies collect data to enhance your experience and personalize the content and advertising you see.
Visit our Privacy Policy to learn more. By continuing to use the site, you agree to this use of cookies and data.

Stündliche Wetter Bolshie Filipkovichi

Heute, 27 September, Sonntag

Zeit Temperatur Niederschläge Wind Luftdruck Luftfeuchtigkeit
00:00 +17°C° 0 mm 6 m/S 743 mmHg 49%
01:00 +17°C° 0 mm 6 m/S 744 mmHg 45%
02:00 +17°C° 0 mm 6 m/S 744 mmHg 41%
03:00 +16°C° 0 mm 6 m/S 744 mmHg 42%
04:00 +16°C° 0 mm 6 m/S 744 mmHg 44%
05:00 +15°C° 0 mm 6 m/S 743 mmHg 45%
06:00 +15°C° 0 mm 7 m/S 744 mmHg 47%
07:00 +16°C° 0 mm 7 m/S 744 mmHg 48%
08:00 +16°C° 0 mm 8 m/S 744 mmHg 49%
09:00 +17°C° 0 mm 8 m/S 744 mmHg 49%
10:00 +17°C° 0 mm 8 m/S 744 mmHg 50%
11:00 +18°C° 0 mm 8 m/S 744 mmHg 50%
12:00 +18°C° 0 mm 8 m/S 744 mmHg 52%
13:00 +20°C° 0 mm 8 m/S 744 mmHg 53%
14:00 +20°C° 0 mm 8 m/S 744 mmHg 55%
15:00 +18°C° 0.2 mm 8 m/S 744 mmHg 59%
16:00 +17°C° 0.2 mm 7 m/S 744 mmHg 63%
17:00 +16°C° 0.2 mm 6 m/S 744 mmHg 67%
18:00 +16°C° 0.4 mm 6 m/S 744 mmHg 70%
19:00 +15°C° 0.4 mm 7 m/S 744 mmHg 73%
20:00 +15°C° 0.4 mm 7 m/S 745 mmHg 76%
21:00 +15°C° 0.3 mm 6 m/S 745 mmHg 79%
22:00 +15°C° 0.3 mm 5 m/S 745 mmHg 82%
23:00 +15°C° 0.3 mm 4 m/S 745 mmHg 85%

Morgen, 28 September, Montag

Zeit Temperatur Niederschläge Wind Luftdruck Luftfeuchtigkeit
00:00 +14°C° 0.6 mm 4 m/S 746 mmHg 88%
01:00 +14°C° 0.6 mm 5 m/S 746 mmHg 90%
02:00 +14°C° 0.6 mm 5 m/S 746 mmHg 93%
03:00 +13°C° 0.1 mm 5 m/S 746 mmHg 91%
04:00 +12°C° 0.1 mm 5 m/S 747 mmHg 90%
05:00 +12°C° 0.1 mm 5 m/S 747 mmHg 89%
06:00 +10°C° 0.1 mm 5 m/S 747 mmHg 88%
07:00 +10°C° 0.1 mm 5 m/S 748 mmHg 87%
08:00 +10°C° 0.1 mm 5 m/S 749 mmHg 86%
09:00 +12°C° 0 mm 5 m/S 749 mmHg 80%
10:00 +13°C° 0 mm 5 m/S 750 mmHg 74%
11:00 +14°C° 0 mm 5 m/S 750 mmHg 69%
12:00 +15°C° 0 mm 4 m/S 751 mmHg 65%
13:00 +15°C° 0 mm 4 m/S 751 mmHg 61%
14:00 +17°C° 0 mm 4 m/S 751 mmHg 57%
15:00 +17°C° 0 mm 3 m/S 751 mmHg 60%
16:00 +16°C° 0 mm 2 m/S 751 mmHg 63%
17:00 +16°C° 0 mm 2 m/S 751 mmHg 66%
18:00 +15°C° 0 mm 2 m/S 751 mmHg 69%
19:00 +13°C° 0 mm 2 m/S 752 mmHg 72%
20:00 +12°C° 0 mm 2 m/S 752 mmHg 76%
21:00 +12°C° 0 mm 2 m/S 752 mmHg 77%
22:00 +12°C° 0 mm 2 m/S 752 mmHg 78%
23:00 +10°C° 0 mm 2 m/S 752 mmHg 79%

übermorgen, 29 September, Dienstag

Zeit Temperatur Niederschläge Wind Luftdruck Luftfeuchtigkeit
00:00 +10°C° 0 mm 2 m/S 752 mmHg 78%
01:00 +10°C° 0 mm 2 m/S 752 mmHg 77%
02:00 +10°C° 0 mm 2 m/S 752 mmHg 76%
03:00 +10°C° 0 mm 2 m/S 751 mmHg 77%
04:00 +10°C° 0 mm 2 m/S 751 mmHg 77%
05:00 +10°C° 0 mm 3 m/S 751 mmHg 77%
06:00 +11°C° 0 mm 3 m/S 751 mmHg 75%
07:00 +12°C° 0 mm 3 m/S 751 mmHg 74%
08:00 +12°C° 0 mm 3 m/S 751 mmHg 72%
09:00 +14°C° 0 mm 3 m/S 750 mmHg 67%
10:00 +17°C° 0 mm 3 m/S 750 mmHg 62%
11:00 +18°C° 0 mm 3 m/S 750 mmHg 58%
12:00 +19°C° 0 mm 4 m/S 749 mmHg 59%
13:00 +19°C° 0 mm 4 m/S 749 mmHg 59%
14:00 +20°C° 0 mm 4 m/S 749 mmHg 60%
15:00 +19°C° 0 mm 4 m/S 749 mmHg 63%
16:00 +18°C° 0 mm 4 m/S 748 mmHg 67%
17:00 +17°C° 0 mm 3 m/S 748 mmHg 70%
18:00 +15°C° 0 mm 4 m/S 748 mmHg 71%
19:00 +15°C° 0 mm 4 m/S 748 mmHg 73%
20:00 +14°C° 0 mm 4 m/S 748 mmHg 75%
21:00 +14°C° 0 mm 4 m/S 747 mmHg 73%
22:00 +14°C° 0 mm 4 m/S 747 mmHg 70%
23:00 +15°C° 0 mm 4 m/S 747 mmHg 68%

30 September, Mittwoch

Zeit Temperatur Niederschläge Wind Luftdruck Luftfeuchtigkeit
00:00 +14°C° 0 mm 4 m/S 747 mmHg 70%
01:00 +13°C° 0 mm 4 m/S 747 mmHg 72%
02:00 +12°C° 0 mm 4 m/S 746 mmHg 75%
03:00 +11°C° 0 mm 4 m/S 746 mmHg 73%
04:00 +11°C° 0 mm 4 m/S 746 mmHg 72%
05:00 +11°C° 0 mm 4 m/S 746 mmHg 71%
06:00 +10°C° 0 mm 5 m/S 746 mmHg 68%
07:00 +12°C° 0 mm 5 m/S 746 mmHg 64%
08:00 +13°C° 0 mm 6 m/S 746 mmHg 60%
09:00 +14°C° 0 mm 6 m/S 746 mmHg 57%
10:00 +14°C° 0 mm 6 m/S 746 mmHg 54%
11:00 +15°C° 0 mm 6 m/S 746 mmHg 50%
12:00 +16°C° 0 mm 6 m/S 746 mmHg 50%
13:00 +16°C° 0 mm 6 m/S 746 mmHg 50%
14:00 +17°C° 0 mm 7 m/S 745 mmHg 50%
15:00 +16°C° 0 mm 6 m/S 745 mmHg 50%
16:00 +15°C° 0 mm 6 m/S 745 mmHg 51%
17:00 +14°C° 0 mm 5 m/S 745 mmHg 52%
18:00 +14°C° 0 mm 5 m/S 746 mmHg 50%
19:00 +14°C° 0 mm 5 m/S 746 mmHg 49%
20:00 +14°C° 0 mm 5 m/S 746 mmHg 47%
21:00 +13°C° 0 mm 5 m/S 746 mmHg 48%
22:00 +13°C° 0 mm 5 m/S 746 mmHg 49%
23:00 +12°C° 0 mm 5 m/S 746 mmHg 49%

1 Oktober, Donnerstag

Zeit Temperatur Niederschläge Wind Luftdruck Luftfeuchtigkeit
00:00 +12°C° 0 mm 5 m/S 745 mmHg 50%
01:00 +10°C° 0 mm 5 m/S 745 mmHg 50%
02:00 +10°C° 0 mm 5 m/S 745 mmHg 50%
03:00 +10°C° 0 mm 5 m/S 745 mmHg 49%
04:00 +12°C° 0 mm 5 m/S 745 mmHg 48%
05:00 +12°C° 0 mm 5 m/S 746 mmHg 48%
06:00 +12°C° 0 mm 5 m/S 745 mmHg 48%
07:00 +12°C° 0 mm 5 m/S 745 mmHg 49%
08:00 +12°C° 0 mm 5 m/S 745 mmHg 50%
09:00 +13°C° 0 mm 5 m/S 745 mmHg 55%
10:00 +13°C° 0 mm 5 m/S 745 mmHg 59%
11:00 +13°C° 0 mm 6 m/S 745 mmHg 64%
12:00 +11°C° 0 mm 6 m/S 745 mmHg 69%
13:00 +11°C° 0 mm 6 m/S 746 mmHg 75%
14:00 +11°C° 0 mm 6 m/S 746 mmHg 81%
15:00 +12°C° 0 mm 5 m/S 746 mmHg 79%
16:00 +12°C° 0 mm 5 m/S 746 mmHg 77%
17:00 +13°C° 0 mm 5 m/S 746 mmHg 75%
18:00 +12°C° 0 mm 5 m/S 746 mmHg 74%
19:00 +12°C° 0 mm 5 m/S 746 mmHg 73%
20:00 +12°C° 0 mm 5 m/S 746 mmHg 72%
21:00 +10°C° 0 mm 5 m/S 746 mmHg 76%
22:00 +11°C° 0 mm 4 m/S 746 mmHg 79%
23:00 +10°C° 0 mm 4 m/S 746 mmHg 83%

2 Oktober, Freitag

Zeit Temperatur Niederschläge Wind Luftdruck Luftfeuchtigkeit
00:00 +10°C° 0 mm 4 m/S 746 mmHg 82%
01:00 +10°C° 0 mm 4 m/S 746 mmHg 82%
02:00 +8°C° 0 mm 4 m/S 746 mmHg 81%
03:00 +9°C° 0 mm 3 m/S 746 mmHg 80%
04:00 +9°C° 0 mm 3 m/S 746 mmHg 79%
05:00 +9°C° 0 mm 3 m/S 746 mmHg 78%
06:00 +10°C° 0 mm 4 m/S 746 mmHg 72%
07:00 +10°C° 0 mm 5 m/S 746 mmHg 67%
08:00 +12°C° 0 mm 5 m/S 746 mmHg 62%
09:00 +13°C° 0 mm 5 m/S 747 mmHg 62%
10:00 +15°C° 0 mm 6 m/S 747 mmHg 61%
11:00 +16°C° 0 mm 6 m/S 747 mmHg 61%
12:00 +16°C° 0 mm 6 m/S 747 mmHg 59%
13:00 +16°C° 0 mm 6 m/S 747 mmHg 58%
14:00 +16°C° 0 mm 6 m/S 747 mmHg 57%
15:00 +15°C° 0 mm 5 m/S 747 mmHg 61%
16:00 +15°C° 0 mm 5 m/S 747 mmHg 65%
17:00 +14°C° 0 mm 4 m/S 748 mmHg 68%
18:00 +13°C° 0 mm 4 m/S 748 mmHg 71%
19:00 +12°C° 0 mm 5 m/S 748 mmHg 74%
20:00 +12°C° 0 mm 5 m/S 749 mmHg 77%
21:00 +10°C° 0 mm 5 m/S 749 mmHg 79%
22:00 +11°C° 0 mm 4 m/S 749 mmHg 80%
23:00 +11°C° 0 mm 4 m/S 749 mmHg 81%
Mehr zeigen